IBE824 ESSA-LEMD

Flight info

Callsign IBE824
Flight time 3h 44m
Altitude 40000
Route PETEV N872 ERNOV DCT NAROL N872 ALS DCT WOODY/N0486F410 N872 MEDIL DCT KOVIN DCT DUCRA UM728 RESMI UN857 DISAK DCT ARKIP DCT ARNAV DCT LMG DCT UVELI DCT OSMOB DCT ARVID T424 PPN N10 BANEV
Aircraft A359/H-SDE2E3GHIJ3J4J5LM1ORWXY/LB1D1

Departure

Time 2026-05-04 02:50
Airport Stockholm-Arlanda Airport (ESSA)

Arrival

Time 2026-05-04 06:34
Airport Adolfo Suárez Madrid–Barajas Airport (LEMD)
Time Latitude Longitude Altitude Speed Heading
2026-05-04 02:13 59.65472 17.93467 118 ft 0 kts 76°
2026-05-04 02:38 59.65471 17.93461 118 ft 3 kts 75°
2026-05-04 02:38 59.65461 17.93414 116 ft 4 kts 50°
2026-05-04 02:38 59.65441 17.93380 114 ft 4 kts 26°
2026-05-04 02:38 59.65416 17.93366 113 ft 4 kts 357°
2026-05-04 02:39 59.65407 17.93367 113 ft 4 kts 346°
2026-05-04 02:43 59.65419 17.93361 113 ft 6 kts 346°
2026-05-04 02:43 59.65478 17.93343 117 ft 10 kts
2026-05-04 02:44 59.65520 17.93313 114 ft 6 kts 310°
2026-05-04 02:44 59.65517 17.93196 115 ft 11 kts 256°
2026-05-04 02:44 59.65496 17.93029 115 ft 15 kts 254°
2026-05-04 02:44 59.65455 17.92799 116 ft 19 kts 247°
2026-05-04 02:45 59.65376 17.92573 113 ft 21 kts 224°
2026-05-04 02:45 59.65251 17.92416 114 ft 22 kts 201°
2026-05-04 02:45 59.65100 17.92346 114 ft 23 kts 191°
2026-05-04 02:45 59.64942 17.92291 114 ft 24 kts 189°
2026-05-04 02:46 59.64778 17.92231 114 ft 25 kts 190°
2026-05-04 02:46 59.64609 17.92169 114 ft 25 kts 190°
2026-05-04 02:46 59.64465 17.92117 115 ft 13 kts 189°
2026-05-04 02:46 59.64386 17.92089 118 ft 12 kts 191°
2026-05-04 02:47 59.64332 17.91997 116 ft 11 kts 258°
2026-05-04 02:47 59.64284 17.91887 117 ft 11 kts 194°
2026-05-04 02:47 59.64201 17.91855 118 ft 13 kts 191°
2026-05-04 02:47 59.64093 17.91816 117 ft 19 kts 190°
2026-05-04 02:48 59.63957 17.91769 115 ft 21 kts 190°
2026-05-04 02:48 59.63831 17.91686 112 ft 15 kts 214°
2026-05-04 02:48 59.63747 17.91552 109 ft 13 kts 224°
2026-05-04 02:48 59.63734 17.91413 112 ft 10 kts 283°
2026-05-04 02:49 59.63759 17.91336 112 ft 3 kts 341°
2026-05-04 02:49 59.63790 17.91346 114 ft 7 kts 10°
2026-05-04 02:49 59.63956 17.91405 114 ft 55 kts 10°
2026-05-04 02:49 59.64564 17.91627 114 ft 120 kts 10°
2026-05-04 02:50 59.65581 17.91994 122 ft 174 kts 11°
2026-05-04 02:50 59.66761 17.92391 837 ft 169 kts
2026-05-04 02:50 59.67896 17.92764 1623 ft 167 kts
2026-05-04 02:50 59.69088 17.92445 1928 ft 178 kts 330°
2026-05-04 02:51 59.70177 17.91173 2354 ft 188 kts 321°
2026-05-04 02:51 59.71009 17.89152 2714 ft 194 kts 286°
2026-05-04 02:51 59.70960 17.86531 3212 ft 196 kts 248°
2026-05-04 02:51 59.70352 17.84126 3854 ft 195 kts 241°
2026-05-04 02:52 59.69729 17.81726 4478 ft 197 kts 244°
2026-05-04 02:52 59.69152 17.79251 5052 ft 198 kts 246°
2026-05-04 02:52 59.68606 17.76742 5672 ft 200 kts 248°
2026-05-04 02:52 59.68141 17.74073 6108 ft 211 kts 252°
2026-05-04 02:53 59.67692 17.71180 6379 ft 229 kts 252°
2026-05-04 02:53 59.67168 17.68097 6757 ft 242 kts 246°
2026-05-04 02:53 59.66176 17.65381 7296 ft 250 kts 222°
2026-05-04 02:53 59.64616 17.63770 7921 ft 259 kts 203°
2026-05-04 02:54 59.62881 17.62693 8528 ft 264 kts 201°
2026-05-04 02:54 59.61109 17.61653 9165 ft 268 kts 201°
2026-05-04 02:54 59.59312 17.60584 9795 ft 271 kts 201°
2026-05-04 02:54 59.57499 17.59489 10187 ft 283 kts 201°
2026-05-04 02:55 59.53559 17.57055 10760 ft 310 kts 202°
2026-05-04 02:55 59.51622 17.55088 11021 ft 318 kts 218°
2026-05-04 02:55 59.49910 17.52248 11424 ft 325 kts 223°
2026-05-04 02:56 59.48226 17.49240 11931 ft 328 kts 224°
2026-05-04 02:56 59.46525 17.46212 12486 ft 331 kts 223°
2026-05-04 02:56 59.44814 17.43183 13040 ft 332 kts 223°
2026-05-04 02:56 59.43085 17.40137 13588 ft 334 kts 223°
2026-05-04 02:57 59.41342 17.37074 14054 ft 337 kts 223°
2026-05-04 02:57 59.39594 17.34009 14506 ft 339 kts 223°
2026-05-04 02:57 59.37833 17.30926 14984 ft 340 kts 223°
2026-05-04 02:57 59.36059 17.27827 15463 ft 342 kts 223°
2026-05-04 02:58 59.34280 17.24723 15951 ft 343 kts 224°
2026-05-04 02:58 59.32489 17.21605 16438 ft 345 kts 224°
2026-05-04 02:58 59.30689 17.18476 16930 ft 345 kts 223°
2026-05-04 02:58 59.28917 17.15401 17435 ft 346 kts 223°
2026-05-04 02:59 59.27106 17.12260 17885 ft 349 kts 223°
2026-05-04 02:59 59.25288 17.09111 18289 ft 351 kts 223°
2026-05-04 02:59 59.23445 17.05926 18682 ft 353 kts 223°
2026-05-04 02:59 59.21603 17.02746 19091 ft 354 kts 223°
2026-05-04 03:00 59.19749 16.99553 19475 ft 356 kts 223°
2026-05-04 03:00 59.17859 16.96397 19868 ft 358 kts 222°
2026-05-04 03:00 59.15940 16.93287 20288 ft 359 kts 221°
2026-05-04 03:00 59.14008 16.90191 20671 ft 360 kts 221°
2026-05-04 03:01 59.12067 16.87086 21070 ft 362 kts 221°
2026-05-04 03:01 59.10122 16.83968 21448 ft 364 kts 221°
2026-05-04 03:01 59.08166 16.80821 21834 ft 365 kts 221°
2026-05-04 03:01 59.06201 16.77654 22157 ft 368 kts 221°
2026-05-04 03:02 59.04228 16.74474 22505 ft 370 kts 221°
2026-05-04 03:02 59.02242 16.71274 22882 ft 371 kts 221°
2026-05-04 03:02 59.00252 16.68074 23255 ft 372 kts 221°
2026-05-04 03:02 58.98250 16.64860 23584 ft 373 kts 220°
2026-05-04 03:03 58.96276 16.61693 23886 ft 375 kts 220°
2026-05-04 03:03 58.94261 16.58468 24176 ft 376 kts 220°
2026-05-04 03:03 58.92241 16.55241 24477 ft 377 kts 220°
2026-05-04 03:03 58.90210 16.52000 24770 ft 378 kts 220°
2026-05-04 03:04 58.88179 16.48762 25074 ft 379 kts 220°
2026-05-04 03:04 58.86139 16.45518 25368 ft 381 kts 220°
2026-05-04 03:04 58.84084 16.42258 25694 ft 382 kts 220°
2026-05-04 03:04 58.82025 16.38995 25923 ft 385 kts 220°
2026-05-04 03:05 58.79947 16.35708 26206 ft 387 kts 220°
2026-05-04 03:05 58.77861 16.32413 26553 ft 388 kts 220°
2026-05-04 03:05 58.75768 16.29112 26882 ft 390 kts 220°
2026-05-04 03:05 58.73662 16.25795 27230 ft 392 kts 220°
2026-05-04 03:06 58.71545 16.22472 27587 ft 393 kts 220°
2026-05-04 03:06 58.69423 16.19146 27954 ft 395 kts 220°
2026-05-04 03:06 58.67284 16.15795 28331 ft 397 kts 220°
2026-05-04 03:06 58.65139 16.12436 28707 ft 399 kts 220°
2026-05-04 03:07 58.62973 16.09051 29092 ft 401 kts 220°
2026-05-04 03:07 58.60803 16.05668 29470 ft 403 kts 220°
2026-05-04 03:07 58.58619 16.02267 29804 ft 406 kts 220°
2026-05-04 03:07 58.56416 15.98844 30123 ft 408 kts 220°
2026-05-04 03:08 58.54238 15.95463 30474 ft 409 kts 220°
2026-05-04 03:08 58.52019 15.92027 30824 ft 410 kts 220°
2026-05-04 03:08 58.49800 15.88595 31191 ft 410 kts 220°
2026-05-04 03:08 58.47580 15.85169 31559 ft 411 kts 220°
2026-05-04 03:09 58.45346 15.81726 31900 ft 412 kts 220°
2026-05-04 03:09 58.43116 15.78296 32244 ft 412 kts 221°
2026-05-04 03:09 58.40875 15.74853 32556 ft 413 kts 221°
2026-05-04 03:09 58.38635 15.71417 32856 ft 414 kts 221°
2026-05-04 03:10 58.36382 15.67965 33229 ft 414 kts 220°
2026-05-04 03:10 58.34141 15.64541 33613 ft 413 kts 220°
2026-05-04 03:10 58.31902 15.61126 33947 ft 412 kts 220°
2026-05-04 03:10 58.29663 15.57717 34164 ft 413 kts 220°
2026-05-04 03:11 58.28168 15.55442 34282 ft 415 kts 220°
2026-05-04 03:11 58.25907 15.52005 34457 ft 417 kts 220°
2026-05-04 03:11 58.23636 15.48561 34687 ft 419 kts 220°
2026-05-04 03:11 58.21353 15.45104 34872 ft 420 kts 220°
2026-05-04 03:12 58.19061 15.41639 35074 ft 422 kts 220°
2026-05-04 03:12 58.16759 15.38165 35274 ft 423 kts 220°
2026-05-04 03:12 58.14446 15.34680 35475 ft 425 kts 220°
2026-05-04 03:12 58.12150 15.31228 35677 ft 427 kts 220°
2026-05-04 03:13 58.09792 15.27688 35832 ft 428 kts 220°
2026-05-04 03:13 58.07478 15.24225 36024 ft 430 kts 220°
2026-05-04 03:13 58.05133 15.20720 36233 ft 431 kts 220°
2026-05-04 03:13 58.02773 15.17197 36431 ft 433 kts 220°
2026-05-04 03:14 58.00412 15.13677 36625 ft 434 kts 220°
2026-05-04 03:14 57.98032 15.10135 36827 ft 435 kts 220°
2026-05-04 03:14 57.95651 15.06597 37024 ft 436 kts 220°
2026-05-04 03:14 57.93262 15.03056 37203 ft 438 kts 220°
2026-05-04 03:15 57.90864 14.99506 37401 ft 439 kts 220°
2026-05-04 03:15 57.88460 14.95956 37592 ft 440 kts 220°
2026-05-04 03:15 57.86048 14.92397 37775 ft 441 kts 220°
2026-05-04 03:15 57.83630 14.88838 37962 ft 442 kts 220°
2026-05-04 03:16 57.81239 14.85325 38135 ft 443 kts 220°
2026-05-04 03:16 57.78801 14.81747 38305 ft 444 kts 220°
2026-05-04 03:16 57.76367 14.78182 38467 ft 445 kts 220°
2026-05-04 03:16 57.73924 14.74612 38613 ft 446 kts 220°
2026-05-04 03:17 57.71472 14.71035 38746 ft 447 kts 220°
2026-05-04 03:17 57.69021 14.67465 38880 ft 447 kts 220°
2026-05-04 03:17 57.66565 14.63896 39035 ft 447 kts 220°
2026-05-04 03:17 57.64107 14.60328 39205 ft 447 kts 220°
2026-05-04 03:18 57.61650 14.56768 39329 ft 447 kts 220°
2026-05-04 03:18 57.59192 14.53213 39430 ft 448 kts 220°
2026-05-04 03:18 57.56726 14.49651 39566 ft 448 kts 220°
2026-05-04 03:18 57.54256 14.46092 39672 ft 449 kts 220°
2026-05-04 03:19 57.51781 14.42529 39755 ft 450 kts 220°
2026-05-04 03:19 57.46821 14.35413 39782 ft 450 kts 220°
2026-05-04 03:20 57.41857 14.28314 39782 ft 450 kts 220°
2026-05-04 03:20 57.36891 14.21238 39772 ft 450 kts 219°
2026-05-04 03:21 57.31922 14.14182 39776 ft 450 kts 219°
2026-05-04 03:21 57.26945 14.07139 39774 ft 450 kts 219°
2026-05-04 03:22 57.21961 14.00111 39788 ft 450 kts 219°
2026-05-04 03:22 57.16978 13.93109 39787 ft 450 kts 219°
2026-05-04 03:23 57.12018 13.86153 39783 ft 451 kts 219°
2026-05-04 03:23 57.07025 13.79188 39788 ft 451 kts 219°
2026-05-04 03:24 57.02022 13.72237 39790 ft 451 kts 219°
2026-05-04 03:24 56.97016 13.65302 39790 ft 451 kts 219°
2026-05-04 03:25 56.92003 13.58379 39793 ft 452 kts 219°
2026-05-04 03:25 56.86978 13.51463 39790 ft 452 kts 219°
2026-05-04 03:26 56.81948 13.44564 39789 ft 452 kts 219°
2026-05-04 03:26 56.76914 13.37683 39796 ft 452 kts 219°
2026-05-04 03:27 56.71879 13.30821 39800 ft 452 kts 219°
2026-05-04 03:27 56.66844 13.23957 39785 ft 452 kts 219°
2026-05-04 03:28 56.61841 13.17164 39796 ft 451 kts 219°
2026-05-04 03:28 56.56773 13.10334 39799 ft 451 kts 218°
2026-05-04 03:29 56.51749 13.03594 39801 ft 451 kts 218°
2026-05-04 03:29 56.46700 12.96839 39801 ft 451 kts 218°
2026-05-04 03:30 56.41643 12.90093 39793 ft 451 kts 218°
2026-05-04 03:30 56.36586 12.83368 39802 ft 451 kts 218°
2026-05-04 03:31 56.31523 12.76659 39802 ft 451 kts 218°
2026-05-04 03:31 56.26488 12.70010 39801 ft 451 kts 218°
2026-05-04 03:32 56.21414 12.63330 39816 ft 452 kts 218°
2026-05-04 03:32 56.16544 12.56241 39814 ft 450 kts 227°
2026-05-04 03:33 56.12395 12.47868 39814 ft 449 kts 231°
2026-05-04 03:33 56.08394 12.39270 39818 ft 449 kts 231°
2026-05-04 03:34 56.04404 12.30665 39818 ft 449 kts 231°
2026-05-04 03:34 56.00389 12.22085 39821 ft 449 kts 231°
2026-05-04 03:35 55.96368 12.13538 39812 ft 449 kts 231°
2026-05-04 03:35 55.92334 12.05020 39821 ft 450 kts 230°
2026-05-04 03:36 55.88279 11.96487 39824 ft 450 kts 230°
2026-05-04 03:36 55.84223 11.87975 39830 ft 450 kts 230°
2026-05-04 03:37 55.80161 11.79478 39829 ft 451 kts 230°
2026-05-04 03:37 55.76097 11.71007 39829 ft 451 kts 230°
2026-05-04 03:38 55.72048 11.62597 39832 ft 451 kts 230°
2026-05-04 03:38 55.67965 11.54148 39835 ft 452 kts 230°
2026-05-04 03:39 55.63869 11.45699 39829 ft 452 kts 230°
2026-05-04 03:39 55.59775 11.37280 39829 ft 452 kts 230°
2026-05-04 03:40 55.55672 11.28869 39836 ft 452 kts 230°
2026-05-04 03:40 55.51557 11.20484 39841 ft 452 kts 230°
2026-05-04 03:41 55.47435 11.12112 39843 ft 452 kts 230°
2026-05-04 03:41 55.43309 11.03754 39842 ft 452 kts 230°
2026-05-04 03:42 55.39176 10.95412 39846 ft 452 kts 230°
2026-05-04 03:42 55.35034 10.87078 39843 ft 452 kts 230°
2026-05-04 03:43 55.30890 10.78769 39841 ft 452 kts 230°
2026-05-04 03:43 55.26735 10.70468 39850 ft 452 kts 230°
2026-05-04 03:44 55.22579 10.62192 39851 ft 452 kts 229°
2026-05-04 03:44 55.18418 10.53936 39848 ft 452 kts 229°
2026-05-04 03:45 55.14288 10.45769 39852 ft 452 kts 229°
2026-05-04 03:45 55.10114 10.37544 39868 ft 452 kts 229°
2026-05-04 03:46 55.05941 10.29346 39867 ft 452 kts 229°
2026-05-04 03:46 55.01758 10.21159 39867 ft 452 kts 229°
2026-05-04 03:47 54.97569 10.12986 39866 ft 452 kts 229°
2026-05-04 03:47 54.93370 10.04824 39864 ft 452 kts 229°
2026-05-04 03:48 54.89162 9.96692 39856 ft 452 kts 228°
2026-05-04 03:48 54.84815 9.88778 39851 ft 452 kts 227°
2026-05-04 03:49 54.80414 9.80956 39890 ft 453 kts 227°
2026-05-04 03:49 54.76025 9.73123 39887 ft 453 kts 227°
2026-05-04 03:50 54.71644 9.65279 39885 ft 453 kts 227°
2026-05-04 03:50 54.67292 9.57500 39885 ft 453 kts 227°
2026-05-04 03:51 54.62910 9.49690 39867 ft 452 kts 227°
2026-05-04 03:51 54.58515 9.41887 39881 ft 453 kts 227°
2026-05-04 03:52 54.54117 9.34105 39887 ft 453 kts 227°
2026-05-04 03:52 54.49708 9.26330 39892 ft 453 kts 226°
2026-05-04 03:53 54.45299 9.18580 39901 ft 453 kts 226°
2026-05-04 03:53 54.40909 9.10887 39907 ft 453 kts 226°
2026-05-04 03:54 54.36486 9.03164 39903 ft 454 kts 226°
2026-05-04 03:54 54.32048 8.95439 39908 ft 454 kts 226°
2026-05-04 03:55 54.27612 8.87741 39913 ft 454 kts 226°
2026-05-04 03:55 54.23159 8.80041 39911 ft 454 kts 226°
2026-05-04 03:56 54.18709 8.72371 39913 ft 454 kts 226°
2026-05-04 03:56 54.14252 8.64714 39916 ft 455 kts 226°
2026-05-04 03:57 54.10541 8.58356 39919 ft 455 kts 226°
2026-05-04 03:57 54.06077 8.50731 39923 ft 455 kts 226°
2026-05-04 03:58 53.99362 8.39309 39931 ft 455 kts 226°
2026-05-04 03:58 53.94872 8.31702 39920 ft 456 kts 226°
2026-05-04 03:59 53.90375 8.24108 39930 ft 456 kts 226°
2026-05-04 03:59 53.85879 8.16538 39936 ft 456 kts 226°
2026-05-04 04:00 53.81374 8.08980 39934 ft 456 kts 225°
2026-05-04 04:00 53.76891 8.01481 39949 ft 456 kts 225°
2026-05-04 04:01 53.72382 7.93964 39942 ft 456 kts 226°
2026-05-04 04:01 53.67866 7.86459 39940 ft 455 kts 225°
2026-05-04 04:02 53.63355 7.78984 39937 ft 454 kts 225°
2026-05-04 04:02 53.58834 7.71518 39938 ft 456 kts 225°
2026-05-04 04:03 53.54298 7.64049 39937 ft 456 kts 225°
2026-05-04 04:03 53.49749 7.56585 39938 ft 456 kts 225°
2026-05-04 04:04 53.45210 7.49161 39946 ft 455 kts 225°
2026-05-04 04:04 53.40675 7.41765 39959 ft 454 kts 225°
2026-05-04 04:05 53.36163 7.34431 39968 ft 454 kts 225°
2026-05-04 04:05 53.31623 7.27072 39968 ft 454 kts 225°
2026-05-04 04:06 53.27074 7.19723 39962 ft 454 kts 225°
2026-05-04 04:06 53.22524 7.12395 39971 ft 455 kts 225°
2026-05-04 04:07 53.17953 7.05056 39950 ft 456 kts 225°
2026-05-04 04:07 53.13381 6.97739 39936 ft 456 kts 225°
2026-05-04 04:08 53.08800 6.90431 39937 ft 456 kts 225°
2026-05-04 04:08 53.04220 6.83145 39945 ft 456 kts 225°
2026-05-04 04:09 52.99636 6.75878 39943 ft 454 kts 225°
2026-05-04 04:09 52.95085 6.68683 39930 ft 454 kts 225°
2026-05-04 04:10 52.90507 6.61469 39931 ft 454 kts 225°
2026-05-04 04:10 52.85924 6.54267 39959 ft 455 kts 224°
2026-05-04 04:11 52.81314 6.47046 39934 ft 456 kts 224°
2026-05-04 04:11 52.76710 6.39858 39950 ft 455 kts 224°
2026-05-04 04:12 52.72109 6.32695 39948 ft 454 kts 224°
2026-05-04 04:12 52.67508 6.25555 39953 ft 454 kts 224°
2026-05-04 04:13 52.62929 6.18468 39954 ft 454 kts 224°
2026-05-04 04:13 52.58317 6.11353 39944 ft 453 kts 224°
2026-05-04 04:14 52.53726 6.04293 39956 ft 451 kts 224°
2026-05-04 04:14 52.49145 5.97269 39967 ft 450 kts 224°
2026-05-04 04:15 52.44539 5.90227 39961 ft 454 kts 224°
2026-05-04 04:15 52.39941 5.83218 39963 ft 454 kts 224°
2026-05-04 04:16 52.35281 5.76136 39958 ft 453 kts 223°
2026-05-04 04:16 52.30698 5.69192 39963 ft 451 kts 223°
2026-05-04 04:17 52.26089 5.62231 39946 ft 451 kts 223°
2026-05-04 04:17 52.21476 5.55282 39948 ft 451 kts 223°
2026-05-04 04:18 52.16859 5.48348 39948 ft 451 kts 223°
2026-05-04 04:18 52.12246 5.41441 39941 ft 449 kts 223°
2026-05-04 04:19 52.07646 5.34574 39948 ft 450 kts 223°
2026-05-04 04:19 52.03016 5.27682 39940 ft 451 kts 223°
2026-05-04 04:20 51.98381 5.20803 39943 ft 452 kts 223°
2026-05-04 04:20 51.93735 5.13928 39941 ft 451 kts 223°
2026-05-04 04:21 51.89094 5.07080 39944 ft 451 kts 222°
2026-05-04 04:21 51.84485 5.00299 39951 ft 450 kts 222°
2026-05-04 04:22 51.79849 4.93498 39949 ft 450 kts 222°
2026-05-04 04:22 51.75202 4.86702 39959 ft 450 kts 222°
2026-05-04 04:23 51.70555 4.79924 39953 ft 451 kts 222°
2026-05-04 04:23 51.65882 4.73128 39961 ft 453 kts 222°
2026-05-04 04:24 51.61195 4.66332 39940 ft 453 kts 222°
2026-05-04 04:24 51.56506 4.59553 39939 ft 453 kts 221°
2026-05-04 04:25 51.51815 4.52790 39937 ft 453 kts 221°
2026-05-04 04:25 51.47123 4.46045 39931 ft 453 kts 221°
2026-05-04 04:26 51.42406 4.39359 39939 ft 452 kts 218°
2026-05-04 04:26 51.37091 4.34015 39942 ft 452 kts 207°
2026-05-04 04:27 51.31470 4.29621 39958 ft 452 kts 206°
2026-05-04 04:27 51.25754 4.25336 39969 ft 453 kts 206°
2026-05-04 04:28 51.20050 4.21064 39960 ft 453 kts 205°
2026-05-04 04:28 51.14234 4.17179 39957 ft 453 kts 201°
2026-05-04 04:29 51.08326 4.13857 39952 ft 453 kts 200°
2026-05-04 04:29 51.02319 4.10588 39954 ft 453 kts 200°
2026-05-04 04:30 50.96393 4.07373 39954 ft 453 kts 200°
2026-05-04 04:30 50.90425 4.04130 39954 ft 453 kts 200°
2026-05-04 04:31 50.84486 4.00793 39958 ft 453 kts 202°
2026-05-04 04:31 50.78652 3.97002 39948 ft 453 kts 203°
2026-05-04 04:32 50.72823 3.93147 39955 ft 453 kts 203°
2026-05-04 04:32 50.66985 3.89372 39955 ft 453 kts 202°
2026-05-04 04:33 50.61140 3.85651 39953 ft 453 kts 202°
2026-05-04 04:33 50.55285 3.81927 39948 ft 454 kts 203°
2026-05-04 04:34 50.49524 3.78013 39952 ft 454 kts 204°
2026-05-04 04:34 50.43737 3.74002 39957 ft 454 kts 204°
2026-05-04 04:35 50.37946 3.70032 39955 ft 454 kts 204°
2026-05-04 04:35 50.32150 3.66092 39956 ft 456 kts 204°
2026-05-04 04:36 50.26305 3.62142 39975 ft 451 kts 204°
2026-05-04 04:36 50.20523 3.58257 39960 ft 456 kts 204°
2026-05-04 04:37 50.08824 3.50411 39960 ft 460 kts 204°
2026-05-04 04:38 50.02941 3.46480 39958 ft 460 kts 204°
2026-05-04 04:38 49.97061 3.42560 39957 ft 460 kts 203°
2026-05-04 04:39 49.91178 3.38650 39954 ft 460 kts 204°
2026-05-04 04:39 49.85285 3.34743 39960 ft 461 kts 203°
2026-05-04 04:40 49.79388 3.30844 39961 ft 461 kts 203°
2026-05-04 04:40 49.73483 3.26950 39963 ft 461 kts 203°
2026-05-04 04:41 49.67580 3.23067 39958 ft 461 kts 203°
2026-05-04 04:41 49.61658 3.19183 39963 ft 462 kts 203°
2026-05-04 04:42 49.56741 3.15965 39965 ft 462 kts 203°
2026-05-04 04:42 49.50812 3.12085 39970 ft 463 kts 204°
2026-05-04 04:43 49.45201 3.07209 39966 ft 464 kts 213°
2026-05-04 04:43 49.39782 3.01776 39964 ft 465 kts 214°
2026-05-04 04:44 49.34400 2.96273 39967 ft 465 kts 214°
2026-05-04 04:44 49.29046 2.90826 39967 ft 465 kts 213°
2026-05-04 04:45 49.23645 2.85371 39965 ft 465 kts 214°
2026-05-04 04:47 49.04717 2.66401 39961 ft 465 kts 213°
2026-05-04 04:47 48.99299 2.61003 39969 ft 464 kts 214°
2026-05-04 04:48 48.93896 2.55632 39966 ft 464 kts 214°
2026-05-04 04:49 48.80351 2.42232 39969 ft 464 kts 214°
2026-05-04 04:49 48.74934 2.36898 39964 ft 464 kts 214°
2026-05-04 04:50 48.69507 2.31567 39966 ft 464 kts 214°
2026-05-04 04:50 48.64087 2.26257 39964 ft 464 kts 214°
2026-05-04 04:51 48.58691 2.21178 39963 ft 464 kts 208°
2026-05-04 04:51 48.52687 2.17847 39962 ft 466 kts 196°
2026-05-04 04:52 48.46347 2.15666 39956 ft 467 kts 194°
2026-05-04 04:52 48.39970 2.13679 39949 ft 468 kts 194°
2026-05-04 04:53 48.33593 2.11681 39952 ft 467 kts 194°
2026-05-04 04:53 48.27132 2.10570 39953 ft 471 kts 181°
2026-05-04 04:54 48.20587 2.11518 39954 ft 473 kts 175°
2026-05-04 04:54 48.14056 2.12675 39956 ft 470 kts 181°
2026-05-04 04:55 48.07618 2.12104 39963 ft 466 kts 188°
2026-05-04 04:55 48.01178 2.10926 39967 ft 466 kts 190°
2026-05-04 04:56 47.94758 2.09645 39966 ft 465 kts 190°
2026-05-04 04:56 47.88345 2.08388 39965 ft 464 kts 189°
2026-05-04 04:57 47.81945 2.07162 39968 ft 464 kts 189°
2026-05-04 04:57 47.75525 2.05945 39946 ft 464 kts 189°
2026-05-04 04:58 47.69142 2.04739 39940 ft 462 kts 189°
2026-05-04 04:58 47.62865 2.03107 39943 ft 458 kts 198°
2026-05-04 04:59 47.56831 1.99948 39934 ft 457 kts 202°
2026-05-04 04:59 47.50955 1.96533 39945 ft 456 kts 203°
2026-05-04 05:00 47.45062 1.93073 39948 ft 455 kts 203°
2026-05-04 05:01 47.36215 1.87947 39956 ft 455 kts 203°
2026-05-04 05:01 47.30319 1.84560 39970 ft 454 kts 203°
2026-05-04 05:02 47.24430 1.81185 39957 ft 453 kts 203°
2026-05-04 05:02 47.18555 1.77826 39955 ft 453 kts 203°
2026-05-04 05:03 47.12666 1.74502 39960 ft 453 kts 202°
2026-05-04 05:04 47.00904 1.67907 39963 ft 452 kts 202°
2026-05-04 05:04 46.95031 1.64618 39957 ft 452 kts 202°
2026-05-04 05:06 46.71486 1.51508 39961 ft 454 kts 202°
2026-05-04 05:07 46.65580 1.48239 39962 ft 454 kts 202°
2026-05-04 05:07 46.59673 1.44977 39960 ft 454 kts 202°
2026-05-04 05:09 46.33145 1.30422 39952 ft 453 kts 202°
2026-05-04 05:10 46.27241 1.27203 39957 ft 453 kts 202°
2026-05-04 05:10 46.21336 1.23991 39958 ft 453 kts 202°
2026-05-04 05:11 46.15430 1.20785 39947 ft 453 kts 202°
2026-05-04 05:11 46.09520 1.17585 39967 ft 454 kts 202°
2026-05-04 05:12 46.03592 1.14382 39963 ft 455 kts 202°
2026-05-04 05:12 45.97703 1.11209 39965 ft 455 kts 202°
2026-05-04 05:13 45.91769 1.08018 39964 ft 455 kts 202°
2026-05-04 05:13 45.85837 1.04834 39964 ft 455 kts 202°
2026-05-04 05:14 45.80238 1.00695 39966 ft 452 kts 216°
2026-05-04 05:14 45.75291 0.95140 39960 ft 451 kts 220°
2026-05-04 05:15 45.70488 0.89354 39953 ft 451 kts 220°
2026-05-04 05:15 45.65698 0.83563 39950 ft 451 kts 220°
2026-05-04 05:16 45.60893 0.77813 39963 ft 451 kts 220°
2026-05-04 05:16 45.56110 0.72126 39939 ft 450 kts 220°
2026-05-04 05:17 45.51288 0.66412 39944 ft 450 kts 220°
2026-05-04 05:17 45.46467 0.60711 39939 ft 450 kts 220°
2026-05-04 05:18 45.41644 0.55020 39938 ft 450 kts 220°
2026-05-04 05:18 45.36826 0.49346 39933 ft 450 kts 220°
2026-05-04 05:19 45.32003 0.43680 39937 ft 449 kts 220°
2026-05-04 05:19 45.27179 0.38025 39948 ft 450 kts 219°
2026-05-04 05:20 45.22330 0.32355 39935 ft 453 kts 219°
2026-05-04 05:20 45.17450 0.26661 39930 ft 454 kts 219°
2026-05-04 05:21 45.12598 0.21013 39933 ft 454 kts 219°
2026-05-04 05:21 45.07718 0.15345 39934 ft 454 kts 219°
2026-05-04 05:22 45.02835 0.09685 39935 ft 454 kts 219°
2026-05-04 05:22 44.97947 0.04034 39929 ft 454 kts 219°
2026-05-04 05:23 44.93058 -0.01605 39943 ft 453 kts 219°
2026-05-04 05:23 44.88163 -0.07237 39932 ft 455 kts 219°
2026-05-04 05:24 44.83242 -0.12888 39932 ft 456 kts 219°
2026-05-04 05:24 44.78351 -0.18490 39932 ft 456 kts 219°
2026-05-04 05:25 44.73416 -0.24132 39933 ft 456 kts 219°
2026-05-04 05:25 44.68479 -0.29762 39932 ft 456 kts 219°
2026-05-04 05:26 44.64231 -0.34149 39934 ft 457 kts 211°
2026-05-04 05:26 44.58675 -0.38483 39931 ft 457 kts 209°
2026-05-04 05:28 44.36158 -0.54919 39927 ft 456 kts 209°
2026-05-04 05:29 44.30527 -0.59025 39930 ft 456 kts 208°
2026-05-04 05:29 44.24910 -0.63112 39933 ft 456 kts 208°
2026-05-04 05:31 44.02447 -0.79363 39922 ft 456 kts 209°
2026-05-04 05:32 43.96819 -0.83412 39935 ft 456 kts 209°
2026-05-04 05:33 43.88371 -0.89475 39938 ft 456 kts 209°
2026-05-04 05:33 43.82732 -0.93511 39938 ft 456 kts 209°
2026-05-04 05:34 43.77100 -0.97533 39937 ft 455 kts 209°
2026-05-04 05:34 43.71459 -1.01554 39938 ft 455 kts 209°
2026-05-04 05:35 43.65858 -1.05537 39940 ft 455 kts 209°
2026-05-04 05:35 43.60223 -1.09535 39936 ft 455 kts 209°
2026-05-04 05:36 43.54588 -1.13525 39957 ft 454 kts 209°
2026-05-04 05:36 43.48957 -1.17505 39963 ft 456 kts 209°
2026-05-04 05:37 43.43303 -1.21492 39964 ft 457 kts 209°
2026-05-04 05:37 43.37650 -1.25470 39965 ft 455 kts 209°
2026-05-04 05:38 43.29229 -1.31378 39966 ft 454 kts 209°
2026-05-04 05:38 43.23596 -1.35322 39970 ft 454 kts 209°
2026-05-04 05:39 43.15104 -1.41252 39973 ft 454 kts 209°
2026-05-04 05:40 43.06689 -1.47107 39973 ft 454 kts 209°
2026-05-04 05:40 43.01056 -1.51029 39971 ft 454 kts 209°
2026-05-04 05:41 42.95432 -1.54939 39976 ft 453 kts 209°
2026-05-04 05:41 42.89798 -1.58849 39974 ft 454 kts 209°
2026-05-04 05:42 42.84163 -1.62750 39965 ft 454 kts 209°
2026-05-04 05:42 42.78525 -1.66645 39966 ft 454 kts 209°
2026-05-04 05:43 42.72880 -1.70536 39968 ft 454 kts 209°
2026-05-04 05:45 42.50226 -1.85747 39968 ft 453 kts 208°
2026-05-04 05:47 42.27619 -2.00815 39966 ft 453 kts 208°
2026-05-04 05:47 42.21964 -2.04571 39966 ft 453 kts 208°
2026-05-04 05:48 42.16301 -2.08309 39959 ft 453 kts 208°
2026-05-04 05:48 42.10643 -2.12041 39963 ft 452 kts 208°
2026-05-04 05:49 42.04996 -2.15761 39972 ft 452 kts 208°
2026-05-04 05:49 41.99347 -2.19475 39971 ft 452 kts 208°
2026-05-04 05:51 41.79676 -2.32352 39379 ft 446 kts 209°
2026-05-04 05:51 41.76880 -2.34176 38648 ft 449 kts 209°
2026-05-04 05:52 41.74063 -2.36012 37789 ft 450 kts 209°
2026-05-04 05:52 41.71253 -2.37840 37049 ft 448 kts 209°
2026-05-04 05:52 41.68448 -2.39664 36299 ft 447 kts 209°
2026-05-04 05:52 41.65657 -2.41476 35567 ft 445 kts 209°
2026-05-04 05:53 41.62876 -2.43280 34821 ft 443 kts 209°
2026-05-04 05:54 41.44140 -2.55389 29024 ft 400 kts 209°
2026-05-04 05:55 41.41633 -2.57006 28443 ft 400 kts 208°
2026-05-04 05:55 41.39137 -2.58613 27899 ft 397 kts 208°
2026-05-04 05:55 41.36658 -2.60208 27357 ft 394 kts 208°
2026-05-04 05:55 41.34161 -2.61677 26817 ft 393 kts 203°
2026-05-04 05:56 41.31508 -2.62567 26239 ft 395 kts 192°
2026-05-04 05:56 41.28749 -2.62695 25701 ft 398 kts 182°
2026-05-04 05:56 41.25987 -2.62470 25143 ft 396 kts 181°
2026-05-04 05:56 41.23248 -2.62203 24583 ft 394 kts 181°
2026-05-04 05:57 41.20517 -2.61941 24020 ft 392 kts 181°
2026-05-04 05:57 41.17803 -2.61688 23432 ft 390 kts 181°
2026-05-04 05:57 41.15099 -2.61441 22810 ft 388 kts 181°
2026-05-04 05:57 41.12419 -2.61199 22232 ft 384 kts 181°
2026-05-04 05:58 41.09761 -2.60960 21652 ft 381 kts 181°
2026-05-04 05:58 41.07124 -2.60723 21292 ft 381 kts 181°
2026-05-04 05:58 41.04449 -2.60491 21135 ft 395 kts 181°
2026-05-04 05:58 41.01688 -2.60248 20887 ft 398 kts 180°
2026-05-04 05:59 40.98928 -2.60001 20634 ft 397 kts 180°
2026-05-04 05:59 40.96170 -2.59751 20379 ft 396 kts 180°
2026-05-04 05:59 40.93426 -2.59506 20077 ft 395 kts 180°
2026-05-04 05:59 40.90687 -2.59265 19634 ft 393 kts 180°
2026-05-04 06:00 40.87966 -2.59027 19150 ft 391 kts 180°
2026-05-04 06:00 40.85267 -2.59089 18679 ft 384 kts 192°
2026-05-04 06:00 40.82730 -2.60023 18182 ft 375 kts 206°
2026-05-04 06:00 40.80579 -2.61892 17573 ft 368 kts 223°
2026-05-04 06:01 40.78738 -2.64214 17059 ft 365 kts 226°
2026-05-04 06:01 40.76967 -2.66566 16624 ft 364 kts 226°
2026-05-04 06:03 40.65755 -2.81474 14784 ft 293 kts 224°
2026-05-04 06:03 40.64101 -2.83016 14357 ft 293 kts 207°
2026-05-04 06:05 40.59134 -2.71338 13037 ft 327 kts 43°
2026-05-04 06:05 40.62483 -2.67264 12764 ft 327 kts 42°
2026-05-04 06:05 40.64150 -2.65235 12638 ft 326 kts 40°
2026-05-04 06:06 40.66065 -2.63671 12479 ft 322 kts 18°
2026-05-04 06:06 40.68237 -2.63283 12363 ft 312 kts 350°
2026-05-04 06:06 40.70253 -2.64139 12251 ft 302 kts 324°
2026-05-04 06:06 40.71784 -2.65940 12099 ft 291 kts 301°
2026-05-04 06:07 40.72623 -2.68274 12002 ft 283 kts 280°
2026-05-04 06:07 40.72720 -2.70823 11870 ft 277 kts 259°
2026-05-04 06:07 40.72085 -2.73187 11738 ft 274 kts 238°
2026-05-04 06:07 40.70876 -2.75121 11617 ft 274 kts 225°
2026-05-04 06:08 40.69499 -2.76856 11491 ft 274 kts 224°
2026-05-04 06:08 40.68113 -2.78576 11299 ft 274 kts 224°
2026-05-04 06:08 40.66726 -2.80312 10877 ft 274 kts 224°
2026-05-04 06:08 40.65321 -2.81989 10479 ft 272 kts 219°
2026-05-04 06:09 40.63657 -2.83139 10122 ft 272 kts 198°
2026-05-04 06:09 40.61763 -2.83287 10000 ft 278 kts 174°
2026-05-04 06:11 40.62619 -2.68936 9980 ft 309 kts 43°
2026-05-04 06:11 40.64160 -2.66962 9991 ft 309 kts 44°
2026-05-04 06:13 40.72045 -2.73211 10001 ft 267 kts 239°
2026-05-04 06:14 40.64396 -2.82751 9993 ft 271 kts 207°
2026-05-04 06:14 40.62569 -2.83350 9992 ft 275 kts 184°
2026-05-04 06:15 40.60680 -2.82879 9983 ft 283 kts 160°
2026-05-04 06:15 40.59079 -2.81342 9998 ft 292 kts 134°
2026-05-04 06:15 40.58118 -2.78967 9996 ft 300 kts 107°
2026-05-04 06:15 40.58054 -2.76229 9997 ft 306 kts 79°
2026-05-04 06:16 40.58955 -2.73695 9999 ft 307 kts 51°
2026-05-04 06:16 40.60430 -2.71663 9997 ft 308 kts 42°
2026-05-04 06:16 40.61990 -2.69734 9998 ft 309 kts 43°
2026-05-04 06:16 40.63541 -2.67763 9998 ft 309 kts 44°
2026-05-04 06:17 40.65103 -2.65818 9973 ft 309 kts 39°
2026-05-04 06:17 40.66975 -2.64469 9993 ft 306 kts 13°
2026-05-04 06:17 40.69056 -2.64374 9993 ft 298 kts 343°
2026-05-04 06:17 40.70888 -2.65496 9991 ft 289 kts 317°
2026-05-04 06:18 40.72146 -2.67482 9998 ft 280 kts 293°
2026-05-04 06:18 40.72941 -2.69810 9981 ft 277 kts 285°
2026-05-04 06:18 40.73298 -2.72279 9994 ft 272 kts 268°
2026-05-04 06:20 40.63929 -2.83115 9992 ft 269 kts 213°
2026-05-04 06:20 40.62325 -2.84399 9992 ft 269 kts 213°
2026-05-04 06:21 40.55914 -2.89543 9980 ft 269 kts 213°
2026-05-04 06:21 40.54313 -2.90826 9980 ft 270 kts 213°
2026-05-04 06:22 40.52714 -2.92109 9993 ft 270 kts 213°
2026-05-04 06:22 40.51111 -2.93393 9992 ft 270 kts 213°
2026-05-04 06:25 40.31351 -3.09192 9090 ft 265 kts 213°
2026-05-04 06:25 40.29794 -3.10434 8882 ft 260 kts 213°
2026-05-04 06:26 40.28253 -3.11701 8753 ft 263 kts 216°
2026-05-04 06:26 40.26959 -3.13380 8610 ft 262 kts 236°
2026-05-04 06:26 40.26281 -3.15564 8223 ft 261 kts 259°
2026-05-04 06:26 40.26321 -3.17953 7761 ft 265 kts 276°
2026-05-04 06:27 40.27636 -3.27406 6692 ft 253 kts 277°
2026-05-04 06:28 40.27934 -3.29635 6540 ft 243 kts 277°
2026-05-04 06:28 40.28257 -3.31766 6383 ft 235 kts 282°
2026-05-04 06:28 40.29001 -3.33644 6228 ft 231 kts 303°
2026-05-04 06:28 40.30003 -3.35240 6087 ft 223 kts 307°
2026-05-04 06:29 40.30990 -3.36737 5970 ft 212 kts 307°
2026-05-04 06:29 40.32009 -3.38076 5830 ft 204 kts 315°
2026-05-04 06:29 40.33137 -3.39187 5544 ft 201 kts 320°
2026-05-04 06:29 40.34210 -3.40244 5392 ft 189 kts 317°
2026-05-04 06:30 40.35209 -3.41258 5243 ft 173 kts 317°
2026-05-04 06:30 40.36114 -3.42186 5065 ft 158 kts 316°
2026-05-04 06:30 40.36951 -3.43049 4867 ft 150 kts 316°
2026-05-04 06:30 40.37757 -3.43891 4568 ft 146 kts 315°
2026-05-04 06:31 40.38534 -3.44698 4330 ft 142 kts 315°
2026-05-04 06:31 40.39308 -3.45500 3994 ft 142 kts 315°
2026-05-04 06:31 40.40090 -3.46283 3770 ft 140 kts 319°
2026-05-04 06:31 40.40876 -3.47047 3581 ft 140 kts 317°
2026-05-04 06:32 40.41644 -3.47839 3399 ft 140 kts 316°
2026-05-04 06:33 40.47018 -3.53288 2044 ft 140 kts 323°
2026-05-04 06:34 40.47792 -3.54072 1937 ft 138 kts 323°
2026-05-04 06:34 40.48455 -3.54742 1945 ft 97 kts 322°
2026-05-04 06:34 40.48859 -3.55152 1960 ft 51 kts 323°
2026-05-04 06:34 40.49105 -3.55406 1961 ft 34 kts 318°
2026-05-04 06:35 40.49215 -3.55606 1971 ft 25 kts 294°
2026-05-04 06:36 40.48774 -3.56196 1975 ft 11 kts 259°
2026-05-04 06:37 40.48768 -3.56298 1974 ft 12 kts 267°
2026-05-04 06:37 40.48768 -3.56455 1977 ft 21 kts 270°
2026-05-04 06:37 40.48767 -3.56658 1983 ft 22 kts 270°
2026-05-04 06:37 40.48766 -3.56859 1986 ft 22 kts 269°
2026-05-04 06:38 40.48766 -3.57018 1989 ft 16 kts 270°
2026-05-04 06:38 40.48797 -3.57108 1991 ft 10 kts 342°
2026-05-04 06:40 40.49355 -3.56919 1982 ft 6 kts 89°
2026-05-04 06:40 40.49355 -3.56867 1982 ft 0 kts 90°